Weather History for Elkins, WV

Change the Weather History Date:

Tuesday, October 4, 2011

  Actual Average Record
Temperature  
Mean Temperature 50 °F 55 °F  
Max Temperature 53 °F 68 °F 85 °F (2005)
Min Temperature 46 °F 43 °F 13 °F (1974)
Degree Days  
Heating Degree Days 15 10  
Month to date heating degree days 85 38  
Since 1 July heating degree days 184 198  
Cooling Degree Days 0 0  
Month to date cooling degree days 0 0  
Year to date cooling degree days 699 471  
Moisture  
Dew Point 48 °F    
Average Humidity 92    
Maximum Humidity 100    
Minimum Humidity 83    
Precipitation  
Precipitation T in 0.09 in 1.90 in (1999)
Month to date precipitation 1.27 0.36  
Year to date precipitation 41.36 36.80  
Snow  
Snow 0.00 in - - ()
Month to date snowfall 0.0  
Since 1 September snowfall 0.0  
Snow Depth 0.00 in    
Sea Level Pressure  
Sea Level Pressure 30.26 in    
Wind  
Wind Speed 2 mph (WNW)    
Max Wind Speed 9 mph    
Max Gust Speed 13 mph    
Visibility 7 miles    
Events Rain    
T = Trace of Precipitation, MM = Missing Value Source: NWS Daily Summary

Daily Weather History Graph

Daily Weather History Graph

Search for Another Location

Airport:

Trip Planner

Search our weather history database for the weather conditions in past years. The results will help you decide how hot, cold, wet, or windy it might be!

Date:

Astronomy

Oct. 04, 2011 Rise Set
Actual Time 7:17 AM EDT 6:57 PM EDT
Civil Twilight 6:51 AM EDT 7:24 PM EDT
Nautical Twilight 6:20 AM EDT 7:55 PM EDT
Astronomical Twilight 5:49 AM EDT 8:26 PM EDT
Moon 2:55 PM EDT (10/4) 12:03 AM EDT (10/4)
Length of Visible Light 12h 33m
Length of Day
11h 39m
First Quarter, 56% of the Moon is Illuminated
Oct 4
First Quarter
Oct 11
Full
Oct 19
Last Quarter
Oct 26
New
Nov 2
First Quarter

Hourly Weather History & Observations

Time (EDT) Temp. Windchill Dew Point Humidity Pressure Visibility Wind Dir Wind Speed Gust Speed Precip Events Conditions
12:41 AM 46.4 °F - 44.6 °F 93% 30.17 in 2.5 mi Calm Calm - 0.01 in   Overcast
12:48 AM 46.4 °F - 44.6 °F 93% 30.17 in 4.0 mi Calm Calm - N/A   Overcast
12:51 AM 46.0 °F - 45.0 °F 96% 30.20 in 5.0 mi Calm Calm - 0.01 in   Overcast
1:51 AM 46.9 °F - 45.0 °F 93% 30.20 in 10.0 mi Calm Calm - N/A   Overcast
2:51 AM 46.9 °F - 45.0 °F 93% 30.20 in 10.0 mi Variable 3.5 mph - N/A   Overcast
3:02 AM 46.4 °F - 44.6 °F 93% 30.17 in 6.0 mi Calm Calm - 0.00 in Rain Light Rain
3:27 AM 46.4 °F 45.2 °F 44.6 °F 93% 30.16 in 7.0 mi Variable 3.5 mph - 0.00 in   Overcast
3:51 AM 46.9 °F - 46.0 °F 97% 30.21 in 7.0 mi Calm Calm - 0.00 in   Overcast
4:51 AM 48.0 °F - 46.0 °F 93% 30.22 in 8.0 mi Calm Calm - N/A   Overcast
5:51 AM 48.0 °F - 46.0 °F 93% 30.22 in 10.0 mi Calm Calm - 0.00 in   Overcast
6:06 AM 48.2 °F - 46.4 °F 93% 30.19 in 10.0 mi Calm Calm - N/A   Overcast
6:28 AM 48.2 °F - 46.4 °F 93% 30.20 in 10.0 mi Calm Calm - N/A   Overcast
6:51 AM 48.0 °F - 46.0 °F 93% 30.25 in 10.0 mi WNW 4.6 mph - N/A   Overcast
7:38 AM 48.2 °F - 46.4 °F 93% 30.22 in 10.0 mi Calm Calm - N/A   Overcast
7:51 AM 48.0 °F - 46.0 °F 93% 30.26 in 10.0 mi West 3.5 mph - N/A   Overcast
8:51 AM 50.0 °F - 46.0 °F 86% 30.27 in 10.0 mi NW 4.6 mph - N/A   Overcast
9:51 AM 51.1 °F - 46.9 °F 86% 30.30 in 10.0 mi WNW 4.6 mph - N/A   Overcast
10:51 AM 50.0 °F - 46.9 °F 89% 30.31 in 10.0 mi WNW 6.9 mph - N/A   Overcast
11:51 AM 51.8 °F - 46.4 °F 82% 30.29 in 9.0 mi WNW 6.9 mph - N/A   Overcast
12:51 PM 51.1 °F - 48.0 °F 89% 30.31 in 4.0 mi Calm Calm - N/A   Overcast
1:00 PM 51.8 °F - 48.2 °F 88% 30.28 in 5.0 mi Calm Calm - N/A   Overcast
1:21 PM 51.8 °F - 48.2 °F 88% 30.28 in 9.0 mi WNW 3.5 mph - N/A   Overcast
1:51 PM 51.1 °F - 48.0 °F 89% 30.31 in 3.0 mi Calm Calm - 0.00 in Rain Light Rain
2:51 PM 52.0 °F - 48.9 °F 89% 30.30 in 10.0 mi Calm Calm - 0.00 in   Overcast
3:51 PM 52.0 °F - 48.9 °F 89% 30.30 in 6.0 mi WNW 6.9 mph - N/A   Overcast
4:51 PM 53.1 °F - 50.0 °F 89% 30.29 in 8.0 mi WNW 4.6 mph - N/A   Overcast
5:51 PM 53.1 °F - 50.0 °F 89% 30.30 in 7.0 mi Calm Calm - 0.00 in   Overcast
6:51 PM 52.0 °F - 50.0 °F 93% 30.31 in 8.0 mi Calm Calm - 0.00 in   Overcast
7:51 PM 52.0 °F - 50.0 °F 93% 30.32 in 9.0 mi Calm Calm - N/A   Overcast
8:51 PM 51.1 °F - 50.0 °F 96% 30.32 in 6.0 mi Calm Calm - N/A   Overcast
9:07 PM 51.8 °F - 50.0 °F 94% 30.29 in 4.0 mi Calm Calm - N/A   Overcast
9:47 PM 51.8 °F - 50.0 °F 94% 30.30 in 6.0 mi Calm Calm - N/A   Overcast
9:51 PM 51.1 °F - 50.0 °F 96% 30.32 in 7.0 mi Calm Calm - N/A   Overcast
10:10 PM 51.8 °F - 50.0 °F 94% 30.30 in 6.0 mi Calm Calm - N/A   Overcast
10:38 PM 51.8 °F - 50.0 °F 94% 30.30 in 5.0 mi Calm Calm - N/A   Overcast
10:51 PM 51.8 °F - 50.0 °F 94% 30.30 in 5.0 mi Calm Calm - N/A   Overcast
11:06 PM 51.8 °F - 50.0 °F 94% 30.30 in 6.0 mi Calm Calm - N/A   Overcast
11:20 PM 51.8 °F - 50.0 °F 94% 30.30 in 4.0 mi Calm Calm - N/A   Overcast
11:35 PM 51.8 °F - 48.2 °F 88% 30.30 in 4.0 mi Calm Calm - N/A   Overcast
11:48 PM 51.8 °F - 48.2 °F 88% 30.30 in 5.0 mi Calm Calm - N/A   Overcast
11:51 PM 51.1 °F - 50.0 °F 96% 30.32 in 5.0 mi Calm Calm - N/A   Overcast